Probability
1 1 3 4 4 6 7 5 5 7 9 9 9 10 9 8 8 8 7 7 8 9 6 3 2 1 0 0 1 2 3 2 2 2 2 1 0 0 0 1 1 0 0
3 3 4 4 4 4 5 6 7 8 9 8 9 9 8 7 8 9 8 7 8 8 7 5 4 2 0 1 2 3 4 4 3 3 3 2 1 0 0 1 1 0 0
5 4 4 5 5 4 3 5 8 9 9 8 7 8 7 7 7 9 9 7 7 9 9 8 6 2 1 2 3 4 5 5 5 5 5 3 1 0 0 1 1 0 0
6 4 4 6 6 5 3 4 7 9 9 7 7 6 5 5 6 8 8 8 8 9 10 9 7 3 2 3 3 4 4 4 4 5 4 3 1 0 0 0 0 0 0
5 4 4 6 7 8 6 5 5 7 7 7 6 5 4 4 5 6 7 8 9 9 10 9 6 4 3 3 3 3 4 3 3 3 3 3 2 2 2 1 1 1 1
6 5 5 6 8 9 8 6 4 5 6 5 4 3 3 3 4 5 7 8 9 9 10 8 5 3 3 3 3 4 5 4 2 1 1 2 3 4 4 3 2 2 2
6 6 6 6 8 8 7 6 5 5 5 5 3 2 2 3 3 4 5 7 8 9 10 8 5 3 3 3 3 3 4 3 1 0 0 1 3 4 5 4 3 3 3
5 5 5 6 7 7 6 5 6 7 7 6 4 2 2 3 3 3 4 6 8 9 10 8 5 3 3 3 3 3 3 2 0 0 0 1 2 4 4 4 3 3 3
4 4 4 4 4 4 5 4 4 6 7 7 4 2 2 2 2 2 4 6 7 9 9 8 5 3 3 3 3 3 2 1 0 0 0 1 2 3 4 3 3 3 3
3 3 3 1 1 2 3 2 2 3 5 6 5 3 3 2 1 1 3 6 7 8 9 7 4 3 3 3 3 3 2 1 0 0 0 1 2 3 4 4 3 3 3
3 3 2 1 0 1 1 1 0 1 3 4 4 3 2 1 0 1 3 5 7 7 8 6 4 3 3 3 3 3 2 0 0 0 0 0 1 4 6 5 4 3 3
3 3 2 1 0 0 0 0 0 0 1 2 2 2 1 0 0 0 2 5 6 7 6 5 3 3 3 3 3 3 2 0 0 0 0 0 1 4 6 6 5 4 3
3 3 2 1 0 0 0 0 0 0 0 0 0 0 0 0 0 0 1 4 6 6 6 4 3 3 2 1 2 2 1 0 0 0 0 0 1 3 4 5 5 5 4
3 3 1 0 0 1 1 1 1 1 1 0 0 0 0 0 0 0 0 2 4 5 5 4 3 3 2 1 2 2 1 0 0 0 0 0 1 2 2 3 5 5 5
3 2 1 0 0 1 2 1 1 1 1 0 0 0 0 0 0 0 0 1 2 4 5 4 3 3 2 2 2 1 0 0 0 0 0 0 0 2 3 3 3 4 4
2 1 0 0 0 1 1 0 0 0 0 0 0 0 0 0 0 0 0 0 1 3 4 4 3 2 1 1 1 1 0 0 0 0 0 0 0 1 3 3 3 2 2
2 1 0 0 0 0 0 0 0 0 0 0 0 0 0 0 0 0 0 0 1 2 2 2 3 2 1 0 0 0 0 0 0 0 0 0 0 1 2 3 3 2 1
3 2 1 0 0 0 0 0 0 0 0 0 0 0 0 0 0 0 0 0 0 0 0 1 2 2 1 0 0 0 0 0 0 0 0 0 0 0 1 2 2 2 1
3 3 1 0 0 0 0 0 0 0 0 0 0 0 0 0 0 0 0 0 0 0 0 0 1 2 2 1 1 1 0 0 0 0 0 0 0 0 0 1 1 1 1
3 3 2 1 0 0 0 0 0 0 0 0 0 0 0 0 0 0 0 0 0 0 0 0 0 1 2 2 1 1 0 0 0 0 0 0 0 0 0 0 0 0 0
2 3 2 1 0 0 0 0 0 1 1 0 0 0 0 0 0 0 0 0 0 0 0 0 0 0 1 2 2 1 0 0 0 0 0 0 0 0 0 0 0 0 0
1 2 2 1 0 0 0 0 1 2 2 1 0 0 0 0 0 0 0 0 0 0 0 0 0 0 1 2 2 1 0 0 0 1 2 1 0 0 0 0 0 0 0
0 1 1 0 0 0 0 0 1 2 2 1 0 0 0 1 0 0 0 0 0 0 0 0 0 0 0 1 2 1 0 0 1 2 3 2 1 0 0 0 0 0 0
0 1 1 1 0 0 0 0 1 1 1 2 1 0 0 0 0 0 0 0 0 0 0 0 0 0 0 1 1 1 0 0 1 2 3 2 1 0 0 0 0 0 0
1 2 2 1 0 0 0 0 0 0 1 2 2 1 0 0 0 0 0 0 0 0 0 0 0 0 0 0 0 0 0 0 0 1 2 1 0 0 0 0 0 0 0
1 2 2 1 0 0 0 0 0 0 1 2 3 2 1 0 0 0 0 0 0 0 0 0 0 0 0 0 0 0 0 0 0 0 1 0 0 0 0 0 0 0 0
Wind_Speed
1 1 4 4 4 5 5 5 5 6 6 6 6 7 7 7 7 7 7 7 7 7 7 6 6 6 7 7 7 7 7 7 8 7 7 7 7 8 8 8 7 4 7
3 2 5 5 5 4 5 5 5 5 6 6 6 6 6 7 7 7 7 7 7 7 7 7 7 7 6 6 6 6 6 6 6 6 6 5 5 6 7 6 6 4 7
4 2 3 5 6 5 5 5 5 5 5 5 5 6 6 6 6 7 6 6 6 6 6 7 7 7 6 6 5 5 5 6 6 6 5 2 2 5 6 6 5 6 6
4 3 3 5 5 6 5 5 5 5 4 5 5 5 6 5 5 5 6 6 6 6 6 7 7 6 6 6 5 4 4 5 5 5 2 1 1 3 4 5 5 5 4
4 3 3 5 5 5 6 5 4 5 5 4 4 5 5 5 5 5 5 5 5 5 6 6 6 5 5 5 5 4 4 4 4 3 2 1 1 2 3 4 4 4 3
4 3 3 5 5 5 5 5 4 4 4 4 4 4 4 4 4 4 4 4 4 5 5 5 5 4 4 4 4 4 4 3 3 2 1 1 1 2 3 3 3 3 3
3 2 2 4 4 4 4 4 4 4 4 4 4 3 3 3 3 3 4 3 3 4 4 4 4 4 3 3 3 3 3 3 1 1 1 1 1 2 3 3 3 3 3
3 2 2 4 5 4 4 4 4 4 4 4 4 4 3 3 2 2 3 3 2 3 3 3 3 3 3 3 3 3 3 3 1 1 1 1 1 2 2 2 2 2 1
3 3 2 2 3 3 4 4 4 4 4 4 4 4 5 4 2 2 2 2 1 2 2 2 2 2 3 3 3 3 3 3 1 1 1 1 1 2 1 2 1 1 1
2 3 2 2 2 2 2 3 4 4 3 3 4 4 5 4 3 2 2 1 1 1 1 2 2 2 3 3 4 4 4 3 1 1 1 2 2 2 2 1 1 1 1
1 1 2 2 2 2 2 3 4 4 3 3 2 3 4 2 2 2 2 1 1 1 1 1 2 3 3 4 4 4 4 1 1 1 1 2 3 3 2 1 1 1 1
1 1 1 1 1 1 2 2 1 2 2 1 1 1 1 1 2 3 2 1 1 1 1 2 2 3 3 2 3 3 1 1 1 1 1 2 3 2 2 2 2 2 2
2 2 1 1 0 0 0 1 1 1 1 1 1 1 1 1 1 2 1 1 1 1 1 1 2 1 1 1 2 2 1 1 1 1 2 3 3 2 2 2 2 2 2
2 2 1 1 1 0 0 0 0 0 1 1 1 1 1 1 1 1 1 1 1 1 1 1 1 1 2 2 2 2 2 1 1 1 2 3 3 3 3 2 3 3 3
2 2 2 1 1 1 1 0 0 0 1 1 0 0 0 0 1 1 1 1 1 1 1 1 1 1 2 2 2 2 2 2 2 2 1 2 3 4 4 4 3 4 3
3 3 2 2 2 1 1 1 1 1 1 1 0 1 0 0 1 1 1 2 1 1 1 1 1 1 1 1 2 3 3 3 2 1 1 2 3 3 4 4 4 5 4
3 3 2 2 1 1 1 2 1 1 1 1 1 1 0 0 1 1 1 1 2 1 1 1 1 1 1 2 2 3 2 3 2 2 2 1 1 2 3 4 5 5 4
2 2 2 1 1 2 2 2 1 1 1 2 1 1 1 1 1 1 1 1 2 1 1 1 1 1 1 2 2 2 2 2 3 2 1 1 1 1 1 3 4 4 5
2 2 2 2 2 2 2 1 1 1 1 2 1 1 1 1 1 0 1 2 1 1 1 1 1 1 1 2 2 2 2 2 3 2 2 1 1 1 1 2 4 4 5
2 2 2 2 2 2 1 1 0 0 1 1 1 1 1 1 1 1 1 1 1 0 0 1 1 1 1 2 2 2 2 2 2 2 2 1 1 1 1 1 1 2 4
1 1 2 2 2 1 1 1 1 1 1 1 1 2 1 1 1 1 1 1 1 1 1 1 1 1 1 1 1 2 2 2 1 1 1 1 1 1 1 1 0 1 2
2 2 2 1 1 2 1 1 1 1 1 2 2 1 1 1 2 1 1 1 1 1 1 1 1 1 1 1 0 1 2 2 2 1 1 1 1 1 1 1 1 1 1
3 3 2 1 1 1 1 0 0 1 1 1 1 1 1 2 2 2 2 2 1 1 2 2 1 2 1 1 0 1 1 2 2 2 1 1 1 1 1 1 1 1 2
4 3 2 2 2 1 1 1 2 1 2 3 2 2 2 2 2 2 2 2 2 2 2 2 2 2 2 2 2 1 2 2 1 2 2 1 1 1 2 2 1 2 2
3 2 2 2 2 2 2 2 2 2 2 2 2 2 2 2 2 2 2 2 2 2 2 2 2 2 2 2 2 2 1 1 2 2 3 3 2 1 2 2 1 1 2
2 1 1 2 2 1 2 2 2 3 2 2 3 3 2 2 2 3 2 2 2 2 3 3 3 3 3 3 2 2 2 2 2 2 3 3 3 3 2 1 1 1 1
Wind_Direction
203 185 89 73 77 73 76 73 67 65 67 65 66 67 62 60 58 63 68 69 69 67 69 70 70 74 77 77 76 81 82 81 80 77 77 76 89 96 93 92 86 80 85
148 131 93 73 67 75 72 72 67 62 62 62 61 65 65 63 61 61 66 69 69 69 70 71 70 71 71 74 74 80 81 81 80 79 75 68 79 97 96 92 94 100 97
117 108 102 76 63 58 68 65 64 64 63 64 63 63 63 62 62 62 66 69 69 68 68 67 68 68 65 67 70 75 78 78 84 78 76 52 65 93 96 95 97 99 100
107 94 83 71 62 55 54 65 64 60 63 64 62 63 61 60 62 61 65 69 67 65 64 60 60 65 63 60 55 58 71 82 84 76 57 22 12 100 100 101 100 100 97
84 73 72 71 61 54 51 52 62 61 57 59 62 63 60 56 55 61 68 71 69 68 65 60 55 58 60 55 46 42 55 75 73 64 40 19 328 109 104 103 105 105 107
80 68 71 70 63 54 50 49 53 59 54 51 56 61 59 53 52 54 59 69 75 71 67 61 56 52 47 45 39 35 40 57 60 48 39 360 315 116 110 107 111 114 112
90 75 71 62 56 51 44 46 43 50 51 46 44 50 58 54 44 49 59 65 79 77 69 60 54 44 38 33 26 26 24 30 59 48 18 315 252 132 126 120 109 117 127
109 88 75 58 47 35 31 32 31 35 42 40 40 34 37 46 34 51 60 52 77 83 72 61 48 36 24 13 7 7 8 10 48 18 336 287 224 172 155 141 124 109 129
111 91 58 47 43 33 22 16 18 17 32 33 33 27 23 17 24 39 48 40 55 82 70 59 44 26 11 1 353 356 359 356 337 279 279 277 233 207 182 166 173 189 167
92 93 70 43 32 21 11 14 10 6 15 28 22 19 17 15 3 4 12 11 30 51 58 39 25 6 356 351 344 348 351 353 314 277 277 272 255 236 219 190 186 200 200
55 76 96 61 31 18 9 12 6 358 348 10 17 16 21 2 345 337 343 356 10 27 35 29 13 6 356 348 341 343 349 349 307 280 272 287 268 256 247 230 216 231 240
248 277 129 122 70 27 14 18 357 357 330 327 343 4 10 0 342 355 342 347 354 1 6 7 1 10 4 344 336 347 348 337 297 274 279 289 268 264 253 248 256 258 263
222 233 216 176 148 92 40 14 355 1 333 322 346 4 17 12 351 359 349 342 337 352 359 343 353 354 348 332 322 321 317 316 273 275 286 289 274 280 270 253 259 264 272
216 230 227 194 176 178 191 271 231 359 324 313 328 1 47 4 348 344 344 339 352 334 326 349 337 327 326 314 304 304 303 290 263 259 275 286 277 279 280 272 260 268 275
225 234 244 217 199 193 173 242 15 223 271 273 300 303 117 93 325 321 321 322 316 324 317 318 321 308 312 307 307 303 290 282 264 249 274 285 280 275 276 280 272 266 268
236 238 241 238 220 183 181 224 230 224 257 265 216 274 299 237 270 283 307 308 292 288 281 273 278 283 286 295 304 301 288 278 268 258 257 272 278 271 273 280 284 278 271
229 228 236 237 232 209 212 224 226 225 250 254 242 246 293 272 251 254 261 293 279 283 291 292 294 291 301 307 303 300 290 277 270 262 255 256 272 286 280 289 291 296 294
225 232 238 247 248 236 221 218 221 220 254 255 243 253 267 268 262 270 265 278 278 282 294 296 289 295 303 303 299 293 287 282 274 252 241 239 250 288 311 322 323 315 315
225 233 238 232 223 243 235 215 210 208 242 250 244 249 270 267 259 268 281 284 287 263 281 298 314 268 285 303 297 288 282 276 274 259 232 227 225 235 256 316 317 313 314
229 233 223 231 229 224 228 197 151 226 254 249 239 240 241 254 262 250 279 304 299 280 312 301 294 298 266 275 296 301 287 276 273 251 233 229 219 233 238 269 295 316 319
238 240 228 222 231 206 211 179 163 239 257 265 251 243 234 251 257 249 273 295 299 268 261 263 270 296 300 301 322 319 311 294 277 266 248 232 246 249 228 218 281 300 306
228 231 229 220 227 209 204 201 191 209 238 246 254 257 242 238 237 249 242 247 243 254 280 290 278 262 294 326 127 333 314 318 326 305 265 222 250 260 260 280 248 258 285
239 234 234 228 249 234 212 179 99 36 345 319 283 267 254 237 228 228 232 231 230 232 234 242 238 225 251 288 235 186 230 262 295 285 253 235 227 244 268 276 257 253 270
240 237 227 225 234 238 201 183 182 202 239 253 247 249 273 259 243 232 225 225 229 228 237 243 238 237 222 247 276 253 226 236 253 289 285 257 253 258 261 281 275 262 264
237 229 225 230 243 237 209 197 195 218 244 258 259 256 266 266 256 247 236 227 230 233 233 233 238 242 230 229 238 250 263 270 244 239 273 295 309 279 270 258 241 255 264
238 223 214 223 251 239 214 207 213 221 238 249 251 247 257 264 265 255 246 236 235 235 234 235 231 235 241 236 239 235 235 242 245 239 256 278 289 290 292 263 234 242 261